| time (UTC) | temp C | wind direction | speed KPH | gust KPH | rain 1hr cm | rain 24hr cm | rain mn cm | humidity % | barometer mb |
| 20260506044512 | 20 | 165 | 4.8 | 9.7 | 0.00 | 0.00 | 0.00 | 87 | 1012.8 |
| 20260506043014 | 20 | 158 | 4.8 | 11.3 | 0.00 | 0.00 | 0.00 | 86 | 1013.0 |
| 20260506041508 | 20 | 121 | 4.8 | 8.0 | 0.00 | 0.00 | 0.00 | 86 | 1013.2 |
| 20260506040005 | 21 | 134 | 3.2 | 9.7 | 0.00 | 0.00 | 0.00 | 85 | 1013.2 |
| 20260506034505 | 21 | 135 | 4.8 | 9.7 | 0.00 | 0.00 | 0.00 | 85 | 1013.2 |
| 20260506033010 | 21 | 136 | 4.8 | 9.7 | 0.00 | 0.00 | 0.00 | 84 | 1013.2 |
| 20260506031516 | 21 | 155 | 4.8 | 12.9 | 0.00 | 0.00 | 0.00 | 83 | 1013.2 |
| 20260506030012 | 21 | 104 | 3.2 | 14.5 | 0.00 | 0.00 | 0.00 | 82 | 1013.0 |
| 20260506024505 | 21 | 135 | 6.4 | 16.1 | 0.00 | 0.00 | 0.00 | 82 | 1013.0 |
| 20260506023007 | 22 | 236 | 4.8 | 14.5 | 0.00 | 0.00 | 0.00 | 81 | 1013.0 |
| 20260506021512 | 22 | 82 | 9.7 | 17.7 | 0.00 | 0.00 | 0.00 | 80 | 1012.9 |
| 20260506020010 | 22 | 113 | 8.0 | 20.9 | 0.00 | 0.00 | 0.00 | 79 | 1013.0 |
| 20260506014512 | 22 | 152 | 6.4 | 16.1 | 0.00 | 0.00 | 0.00 | 78 | 1012.9 |
| 20260506013004 | 22 | 136 | 6.4 | 17.7 | 0.00 | 0.00 | 0.00 | 78 | 1012.8 |
| 20260506011509 | 23 | 155 | 8.0 | 19.3 | 0.00 | 0.00 | 0.00 | 77 | 1012.5 |
| 20260506010014 | 23 | 129 | 4.8 | 16.1 | 0.00 | 0.00 | 0.00 | 76 | 1012.1 |
| 20260506004514 | 23 | 133 | 4.8 | 19.3 | 0.00 | 0.00 | 0.00 | 76 | 1011.9 |
| 20260506003014 | 23 | 216 | 6.4 | 24.1 | 0.00 | 0.00 | 0.00 | 75 | 1011.8 |
| 20260506001508 | 23 | 164 | 9.7 | 20.9 | 0.00 | 0.00 | 0.00 | 74 | 1011.7 |
| 20260506000010 | 24 | 172 | 4.8 | 20.9 | 0.00 | 0.00 | 0.00 | 73 | 1011.7 |
| 20260505234532 | 24 | 136 | 6.4 | 17.7 | 0.00 | 0.00 | 0.00 | 72 | 1011.8 |
| 20260505233018 | 24 | 75 | 9.7 | 19.3 | 0.00 | 0.00 | 0.00 | 72 | 1011.8 |
| 20260505231516 | 25 | 121 | 6.4 | 14.5 | 0.00 | 0.00 | 0.00 | 71 | 1011.9 |
| 20260505230012 | 25 | 213 | 4.8 | 17.7 | 0.00 | 0.00 | 0.00 | 71 | 1012.1 |
| 20260505224516 | 25 | 210 | 8.0 | 16.1 | 0.00 | 0.00 | 0.00 | 70 | 1011.8 |
| 20260505223017 | 25 | 147 | 4.8 | 11.3 | 0.00 | 0.00 | 0.00 | 69 | 1011.9 |
| 20260505221518 | 26 | 171 | 8.0 | 16.1 | 0.00 | 0.00 | 0.00 | 68 | 1011.9 |
| 20260505220018 | 26 | 195 | 8.0 | 17.7 | 0.00 | 0.00 | 0.00 | 68 | 1011.7 |
| 20260505214509 | 26 | 153 | 4.8 | 17.7 | 0.00 | 0.00 | 0.00 | 68 | 1011.9 |
| 20260505213015 | 27 | 215 | 9.7 | 14.5 | 0.00 | 0.00 | 0.00 | 65 | 1011.8 |
| 20260505211518 | 27 | 136 | 8.0 | 20.9 | 0.00 | 0.00 | 0.00 | 64 | 1011.8 |
| 20260505210022 | 27 | 171 | 6.4 | 16.1 | 0.00 | 0.00 | 0.00 | 63 | 1011.9 |
| 20260505204525 | 27 | 86 | 6.4 | 19.3 | 0.00 | 0.00 | 0.00 | 62 | 1011.9 |
| 20260505203012 | 28 | 145 | 9.7 | 22.5 | 0.00 | 0.00 | 0.00 | 59 | 1011.9 |
| 20260505201522 | 27 | 185 | 3.2 | 14.5 | 0.00 | 0.00 | 0.00 | 62 | 1012.0 |
| 20260505200024 | 27 | 198 | 6.4 | 17.7 | 0.00 | 0.00 | 0.00 | 59 | 1012.3 |
| 20260505194505 | 27 | 174 | 4.8 | 20.9 | 0.00 | 0.00 | 0.00 | 59 | 1012.3 |
| 20260505193010 | 27 | 201 | 6.4 | 16.1 | 0.00 | 0.00 | 0.00 | 60 | 1012.6 |
| 20260505191512 | 28 | 146 | 6.4 | 16.1 | 0.00 | 0.00 | 0.00 | 57 | 1012.5 |
| 20260505190020 | 28 | 172 | 9.7 | 19.3 | 0.00 | 0.00 | 0.00 | 57 | 1012.8 |
| 20260505184526 | 27 | 129 | 9.7 | 17.7 | 0.00 | 0.00 | 0.00 | 58 | 1013.0 |
| 20260505183015 | 28 | 224 | 9.7 | 20.9 | 0.00 | 0.00 | 0.00 | 56 | 1013.1 |
| 20260505181512 | 28 | 217 | 9.7 | 16.1 | 0.00 | 0.00 | 0.00 | 56 | 1013.4 |
| 20260505180016 | 27 | 124 | 4.8 | 11.3 | 0.00 | 0.00 | 0.00 | 58 | 1013.3 |
| 20260505174520 | 27 | 176 | 9.7 | 17.7 | 0.00 | 0.00 | 0.00 | 58 | 1013.5 |
| 20260505173023 | 27 | 158 | 4.8 | 20.9 | 0.00 | 0.00 | 0.00 | 59 | 1013.6 |
| 20260505171508 | 26 | 272 | 9.7 | 20.9 | 0.00 | 0.00 | 0.00 | 58 | 1013.6 |
| 20260505170011 | 26 | 233 | 14.5 | 20.9 | 0.00 | 0.00 | 0.00 | 58 | 1013.9 |
| 20260505164520 | 26 | 214 | 8.0 | 20.9 | 0.00 | 0.00 | 0.00 | 59 | 1013.9 |
| 20260505163022 | 26 | 216 | 9.7 | 20.9 | 0.00 | 0.00 | 0.00 | 61 | 1013.8 |
| 20260505161528 | 25 | 206 | 6.4 | 22.5 | 0.00 | 0.00 | 0.00 | 65 | 1013.8 |
| 20260505153018 | 24 | 237 | 6.4 | 19.3 | 0.00 | 0.00 | 0.00 | 66 | 1014.1 |
| 20260505151521 | 23 | 144 | 6.4 | 22.5 | 0.00 | 0.00 | 0.00 | 67 | 1014.3 |
| 20260505124524 | 13 | 120 | 0.0 | 0.0 | 0.00 | 0.00 | 0.00 | 94 | 1014.2 |
| 20260505123028 | 12 | 120 | 0.0 | 0.0 | 0.00 | 0.00 | 0.00 | 94 | 1014.2 |
| 20260505121513 | 11 | 120 | 0.0 | 0.0 | 0.00 | 0.00 | 0.00 | 94 | 1014.0 |
| 20260505120020 | 11 | 120 | 0.0 | 0.0 | 0.00 | 0.00 | 0.00 | 94 | 1013.9 |
| 20260505114522 | 10 | 120 | 0.0 | 0.0 | 0.00 | 0.00 | 0.00 | 94 | 1013.9 |
| 20260505113030 | 10 | 120 | 0.0 | 0.0 | 0.00 | 0.00 | 0.00 | 94 | 1013.8 |
| 20260505111511 | 10 | 120 | 0.0 | 0.0 | 0.00 | 0.00 | 0.00 | 93 | 1013.5 |
| 20260505101513 | 10 | 118 | 0.0 | 0.0 | 0.00 | 0.00 | 0.00 | 93 | 1013.7 |
| 20260505100013 | 10 | 118 | 0.0 | 0.0 | 0.00 | 0.00 | 0.00 | 94 | 1013.7 |
| 20260505094524 | 10 | 118 | 0.0 | 0.0 | 0.00 | 0.00 | 0.00 | 93 | 1013.5 |
| 20260505093004 | 10 | 119 | 0.0 | 0.0 | 0.00 | 0.00 | 0.00 | 93 | 1013.3 |
| 20260505091507 | 10 | 118 | 0.0 | 0.0 | 0.00 | 0.00 | 0.00 | 93 | 1013.3 |
| 20260505090009 | 10 | 118 | 0.0 | 0.0 | 0.00 | 0.00 | 0.00 | 93 | 1013.2 |
| 20260505084517 | 10 | 118 | 0.0 | 0.0 | 0.00 | 0.00 | 0.00 | 92 | 1013.3 |
| 20260505083019 | 11 | 118 | 0.0 | 0.0 | 0.00 | 0.00 | 0.00 | 92 | 1013.3 |
| 20260505081504 | 11 | 118 | 0.0 | 0.0 | 0.00 | 0.00 | 0.00 | 92 | 1013.4 |
| 20260505080006 | 11 | 118 | 0.0 | 0.0 | 0.00 | 0.00 | 0.00 | 91 | 1013.7 |
| 20260505074508 | 11 | 119 | 0.0 | 0.0 | 0.00 | 0.00 | 0.00 | 91 | 1013.7 |
| 20260505073020 | 11 | 119 | 0.0 | 0.0 | 0.00 | 0.00 | 0.00 | 92 | 1013.9 |
| 20260505071518 | 11 | 119 | 0.0 | 0.0 | 0.00 | 0.00 | 0.00 | 92 | 1014.0 |
| 20260505070035 | 11 | 119 | 0.0 | 0.0 | 0.00 | 0.00 | 0.00 | 91 | 1014.3 |
| 20260505064508 | 11 | 118 | 0.0 | 0.0 | 0.00 | 0.00 | 0.00 | 90 | 1014.2 |
| 20260505063012 | 12 | 118 | 0.0 | 0.0 | 0.00 | 0.00 | 0.00 | 89 | 1014.2 |
| 20260505061523 | 12 | 118 | 0.0 | 0.0 | 0.00 | 0.00 | 0.00 | 88 | 1014.4 |